Wind_Speed
18 17 17 16 15 15 15 15 16 16 17 17 16 15 15 15 15 14 15 15 17 17 18 18 19 17 17 18 18 18 17 18 17
19 19 19 18 17 17 16 15 15 15 15 15 16 16 16 16 16 15 15 15 16 17 17 18 19 19 19 18 20 20 19 19 20
20 20 19 19 18 17 17 16 16 16 16 16 16 16 16 17 17 17 18 16 17 17 17 18 18 19 19 21 22 21 21 20 21
20 20 20 20 19 18 18 17 17 17 17 17 17 17 17 18 18 18 19 18 19 18 17 17 17 18 19 21 22 23 24 24 24
21 19 19 18 18 18 18 18 19 20 20 20 19 19 19 19 19 19 19 20 20 18 17 16 16 16 17 19 19 19 22 25 26
18 19 18 18 18 18 18 18 19 19 20 20 20 19 19 20 20 20 18 19 19 18 17 17 16 17 18 20 21 21 21 21 24
20 18 17 17 17 17 17 18 18 18 17 19 18 18 18 19 20 19 18 18 17 17 17 17 18 19 20 21 22 23 23 24 25
16 16 15 15 15 16 17 17 18 18 17 18 19 20 19 19 19 18 17 16 15 16 17 18 19 21 21 23 24 25 26 26 27
18 18 17 17 18 18 18 18 18 19 19 18 19 20 20 19 17 16 15 15 14 15 16 18 19 20 22 23 24 25 27 29 29
16 17 18 19 20 21 20 19 18 18 19 20 19 19 18 16 15 14 13 13 13 15 15 16 17 19 20 22 23 25 27 29 31
15 17 19 20 21 22 21 20 20 19 19 18 19 18 16 15 14 13 11 12 12 13 14 15 16 18 19 21 23 24 24 26 29
16 17 20 22 21 21 21 20 20 19 18 17 16 16 15 14 13 13 12 11 12 12 13 15 16 17 18 20 21 21 22 27 29
17 19 21 20 20 20 21 21 20 19 18 17 15 14 14 14 14 14 13 13 12 12 14 14 16 17 18 19 18 19 22 23 31
17 19 20 19 21 21 21 21 20 19 18 16 15 13 13 13 13 13 13 13 14 14 14 15 15 16 17 16 17 18 20 18 18
17 19 19 19 20 21 21 21 20 18 16 16 14 14 13 13 13 13 13 13 13 14 14 15 15 16 16 14 16 14 17 18 15
18 19 19 19 20 19 20 20 19 18 16 15 15 12 13 13 13 13 13 13 13 14 14 15 17 17 14 16 14 12 13 15 8
18 18 18 18 19 19 18 18 18 17 17 16 16 15 13 11 10 12 14 13 13 13 13 14 17 19 15 15 14 12 11 10 12
18 19 18 18 19 18 18 17 17 17 16 16 16 15 15 15 13 11 13 13 13 13 13 14 15 18 17 16 18 13 15 11 12
19 18 18 18 19 19 18 17 17 17 16 15 16 16 16 15 16 16 12 12 13 13 13 13 14 17 16 15 17 15 16 12 14
20 20 19 18 19 19 19 18 17 16 16 16 16 16 16 16 16 15 17 17 14 15 15 15 15 15 15 13 15 16 16 15 14
Wind_Direction
341 338 336 334 330 324 319 315 311 309 308 306 303 299 295 293 292 289 287 287 291 285 281 279 277 271 271 271 269 271 274 279 280
336 334 333 330 328 323 318 314 310 309 309 309 307 304 301 298 295 291 288 284 280 281 281 278 274 271 264 263 267 266 268 270 274
332 330 328 328 326 322 318 317 315 313 311 308 303 299 295 293 292 291 287 286 279 276 274 273 273 272 269 266 262 263 264 266 269
330 330 329 328 326 325 323 320 316 313 310 307 303 299 294 291 290 288 287 285 280 279 275 271 268 269 270 268 267 265 262 263 266
329 329 327 328 327 326 326 324 321 318 315 311 307 304 302 298 295 291 290 284 282 281 278 271 267 266 268 270 268 266 263 261 261
330 331 331 332 330 328 326 322 320 318 317 314 311 309 306 304 300 297 292 285 282 281 280 271 265 266 271 271 271 270 268 268 265
336 335 335 333 331 328 327 323 323 320 317 315 311 306 304 301 298 295 288 283 279 279 277 269 266 269 274 276 275 273 272 269 265
332 332 330 331 331 330 329 328 325 321 320 317 312 309 308 304 300 296 287 281 276 279 277 272 269 271 276 277 278 278 279 275 271
334 334 333 333 332 330 328 325 322 320 318 315 313 311 310 307 303 299 290 281 279 279 275 273 273 276 277 278 280 281 279 277 275
331 330 330 331 332 330 326 324 322 323 319 318 317 313 311 305 302 298 288 282 282 282 280 278 278 279 281 284 285 284 283 282 278
326 326 328 329 330 328 327 325 324 323 318 320 320 317 313 310 307 299 285 279 282 285 284 282 281 283 287 289 290 290 287 283 279
320 325 328 330 331 331 328 327 329 327 325 329 326 323 322 322 316 304 290 281 284 287 289 286 286 288 289 290 291 294 290 283 279
323 328 330 330 332 334 331 333 331 332 332 334 329 330 331 332 328 317 303 294 293 296 294 296 294 292 292 291 293 296 293 307 298
323 326 327 329 331 334 332 333 332 330 334 334 331 331 334 336 330 324 315 301 300 301 301 296 294 295 292 296 300 296 314 317 331
319 323 323 329 333 337 337 336 333 333 333 332 334 332 334 334 331 329 321 313 304 301 301 299 299 299 299 302 300 311 314 311 320
317 322 320 328 330 336 337 335 333 333 332 330 329 336 331 326 325 326 322 319 315 305 302 302 304 302 305 306 306 297 303 310 298
315 317 317 325 326 332 333 334 332 333 332 331 330 327 329 315 317 322 322 322 319 312 305 302 303 302 310 305 303 307 291 299 307
313 314 315 318 320 325 328 329 329 330 332 331 329 326 324 323 318 315 314 315 318 319 316 310 303 303 308 307 305 310 302 298 302
307 308 309 312 314 318 320 321 322 325 328 328 326 323 322 321 320 316 313 310 313 314 314 314 312 305 308 308 300 303 299 307 299
303 305 306 307 308 310 313 315 315 318 320 321 321 320 319 318 316 315 318 321 320 314 313 310 309 308 306 306 300 299 295 298 296
Height
3157 3155 3154 3152 3151 3150 3149 3148 3148 3147 3146 3145 3144 3143 3142 3142 3142 3142 3141 3140 3140 3140 3139 3139 3140 3140 3141 3142 3142 3142 3143 3143 3143
3155 3153 3152 3151 3149 3148 3147 3146 3145 3144 3143 3142 3141 3141 3140 3140 3139 3138 3138 3137 3136 3136 3136 3136 3136 3137 3137 3138 3139 3139 3139 3140 3141
3154 3152 3150 3149 3147 3146 3145 3143 3143 3142 3141 3140 3139 3138 3137 3136 3135 3134 3134 3134 3133 3132 3132 3132 3133 3133 3133 3134 3134 3135 3135 3136 3137
3152 3150 3149 3147 3145 3144 3142 3141 3140 3139 3138 3136 3135 3134 3134 3132 3131 3130 3129 3129 3128 3128 3128 3128 3129 3129 3129 3129 3130 3130 3131 3132 3132
3149 3147 3146 3144 3143 3141 3140 3139 3138 3136 3135 3134 3132 3131 3130 3129 3128 3127 3127 3125 3124 3124 3124 3124 3124 3125 3125 3125 3125 3125 3125 3127 3128
3147 3145 3143 3142 3140 3139 3137 3136 3135 3134 3132 3131 3129 3128 3126 3125 3124 3123 3122 3121 3121 3120 3120 3120 3121 3121 3122 3121 3121 3121 3121 3122 3123
3145 3143 3141 3140 3138 3137 3134 3133 3131 3130 3129 3128 3127 3125 3122 3120 3119 3118 3118 3117 3117 3116 3116 3116 3116 3117 3117 3116 3116 3115 3115 3116 3117
3143 3142 3140 3138 3136 3135 3133 3131 3129 3127 3125 3124 3122 3121 3118 3116 3114 3114 3113 3113 3112 3112 3112 3112 3112 3112 3112 3111 3110 3110 3110 3110 3111
3140 3139 3138 3136 3134 3132 3130 3128 3126 3124 3122 3120 3119 3118 3115 3113 3111 3110 3109 3109 3108 3108 3108 3108 3108 3107 3106 3106 3105 3104 3104 3103 3103
3138 3138 3136 3134 3132 3130 3128 3125 3123 3121 3119 3117 3115 3114 3111 3110 3108 3106 3106 3105 3105 3105 3104 3104 3103 3102 3101 3100 3099 3099 3099 3099 3099
3137 3136 3133 3131 3129 3127 3125 3122 3120 3117 3115 3113 3111 3110 3108 3107 3105 3103 3103 3102 3102 3101 3101 3099 3098 3098 3097 3096 3095 3095 3093 3092 3091
3135 3133 3132 3129 3126 3124 3123 3120 3117 3115 3113 3110 3108 3107 3106 3104 3103 3102 3100 3100 3099 3098 3097 3096 3094 3093 3092 3091 3091 3090 3087 3084 3083
3132 3131 3129 3127 3125 3123 3121 3118 3115 3112 3110 3108 3107 3105 3103 3101 3100 3100 3099 3098 3097 3096 3094 3092 3091 3090 3089 3088 3086 3083 3081 3079 3077
3130 3128 3127 3125 3123 3120 3118 3115 3113 3111 3108 3106 3105 3103 3100 3099 3098 3097 3096 3095 3094 3093 3091 3089 3087 3086 3085 3084 3081 3079 3075 3075 3071
3127 3126 3124 3122 3120 3117 3115 3112 3111 3109 3107 3105 3103 3101 3099 3097 3096 3095 3094 3092 3091 3090 3089 3086 3084 3084 3083 3081 3079 3076 3072 3072 3070
3125 3123 3122 3119 3118 3115 3113 3111 3108 3106 3104 3102 3101 3099 3098 3096 3095 3093 3092 3090 3089 3088 3086 3084 3082 3080 3081 3078 3076 3074 3070 3069 3068
3122 3121 3119 3117 3115 3113 3111 3109 3107 3104 3102 3099 3097 3096 3096 3094 3093 3092 3090 3088 3087 3085 3083 3082 3079 3077 3078 3076 3073 3073 3068 3067 3068
3119 3118 3116 3114 3113 3110 3108 3106 3104 3102 3099 3097 3096 3093 3092 3090 3090 3089 3087 3086 3084 3082 3081 3079 3077 3075 3075 3074 3072 3070 3067 3065 3063
3116 3114 3112 3111 3109 3108 3105 3103 3102 3099 3097 3095 3093 3091 3090 3088 3087 3085 3085 3084 3082 3080 3079 3076 3074 3072 3072 3071 3068 3067 3064 3064 3061
3112 3111 3109 3107 3105 3104 3102 3100 3098 3096 3095 3093 3091 3089 3087 3086 3084 3083 3081 3080 3079 3078 3076 3075 3072 3070 3068 3068 3066 3064 3062 3060 3060